This is the latest recevied weather packets stored in our database for station/object W4OTS. If no packets are shown the sender has not sent any weather packets the latest 1 day(s).
| Time | Temp. | Humidity | Pressure | Rain* | Wind** | Luminosity | Snow |
|---|---|---|---|---|---|---|---|
| 1778080013 | 19.44° C | 82% | 1015.7 hPa | 0 mm | - | 301 W/m² | - |
| 1778079407 | 19.44° C | 82% | 1015.6 hPa | 0 mm | - | 236 W/m² | - |
| 1778078802 | 18.89° C | 83% | 1015.5 hPa | 0 mm | - | 210 W/m² | - |
| 1778078498 | 18.89° C | 84% | 1015.5 hPa | 0 mm | - | 208 W/m² | - |
| 1778077592 | 18.33° C | 84% | 1015.4 hPa | 0 mm | - | 69 W/m² | - |
| 1778076685 | 18.33° C | 83% | 1016 hPa | 0 mm | - | 176 W/m² | - |
| 1778076382 | 18.33° C | 84% | 1015.7 hPa | 0 mm | - | 153 W/m² | - |
| 1778075776 | 17.78° C | 85% | 1015.9 hPa | 0 mm | - | 75 W/m² | - |
| 1778075169 | 17.78° C | 86% | 1015.8 hPa | 0 mm | - | 83 W/m² | - |
| 1778074259 | 17.78° C | 85% | 1015.7 hPa | 0 mm | - | 154 W/m² | - |
| 1778073956 | 17.22° C | 86% | 1015.3 hPa | 0 mm | - | 95 W/m² | - |
| 1778073047 | 17.22° C | 87% | 1015.4 hPa | 0 mm | - | 82 W/m² | - |
| 1778072744 | 17.22° C | 87% | 1015.5 hPa | 0 mm | - | 78 W/m² | - |
| 1778071837 | 16.67° C | 88% | 1015.4 hPa | 0 mm | - | 97 W/m² | - |
| 1778070628 | 16.11° C | 89% | 1015.1 hPa | 0 mm | - | 75 W/m² | - |
| 1778070023 | 16.11° C | 90% | 1015.5 hPa | 0 mm | - | 67 W/m² | - |
| 1778069720 | 15.56° C | 90% | 1015.6 hPa | 0 mm | - | 61 W/m² | - |
| 1778069114 | 15.56° C | 91% | 1016 hPa | 0 mm | - | 42 W/m² | - |
| 1778068811 | 15.56° C | 91% | 1015.9 hPa | 0 mm | - | 23 W/m² | - |
| 1778068509 | 15.56° C | 91% | 1016.1 hPa | 0 mm | - | 25 W/m² | - |
| 1778067603 | 15.56° C | 90% | 1016.4 hPa | 0 mm | - | 19 W/m² | - |
| 1778066694 | 15° C | 90% | 1015.8 hPa | 0 mm | - | 31 W/m² | - |
| 1778066089 | 15° C | 90% | 1015.9 hPa | 0 mm | - | 25 W/m² | - |
| 1778065484 | 15° C | 90% | 1015.6 hPa | 0 mm | - | 17 W/m² | - |
| 1778064876 | 15° C | 90% | 1015.3 hPa | 0 mm | - | 9 W/m² | - |
* Rain latest hour (hover to see other rain measurements)
** Current wind speed in m/s (hover to see current wind gust speed)